Tracking 29892 objects as of 21-Nov-2024
HD Live streaming from Space Station
objects crossing your sky now

DELTA 1 R/B

Track DELTA 1 R/B now!
10-day predictions


NORAD ID: 4377
Int'l Code: 1970-032B
Perigee: 305.1 km
Apogee: 18,668.6 km
Inclination: 26.7 °
Period: 331.2 minutes
Semi major axis: 15857 km
RCS: 1.5091 m2 (large)
Launch date: April 23, 1970
Source: United States (US)
Launch site: AIR FORCE EASTERN TEST RANGE (AFETR)

Note: This is a ROCKET BODY
Your satellite tracking list
Your tracking list is empty




NASA's NSSDC Master Catalog

Two Line Element Set (TLE):
1  4377U 70032B   24325.88949989  .00008274  00000-0  19342-2 0  9995
2  4377  26.7270 169.8359 5790061 199.4099 123.6020  4.34746955608103
Source of the keplerian elements: AFSPC